AirNav   Air Wisconsin pilot careers
 
 957 users online  

0S0 Lind Airport
Lind, Washington, USA

GOING TO LIND?


FAA INFORMATION EFFECTIVE 04 JANUARY 2018

Location

FAA Identifier: 0S0
Lat/Long: 46-58-36.6310N / 118-35-14.0320W
46-58.610517N / 118-35.233867W
46.9768419 / -118.5872311
(estimated)
Elevation: 1507 ft. / 459 m (estimated)
Variation: 19E (1985)
From city: 2 miles NE of LIND, WA
Time zone: UTC -8 (UTC -7 during Daylight Saving Time)
Zip code: 99341

Airport Operations

Airport use: Open to the public
Activation date: 04/1940
Control tower: no
ARTCC: SEATTLE CENTER
FSS: SEATTLE FLIGHT SERVICE STATION
NOTAMs facility: SEA (NOTAM-D service available)
Attendance: UNATNDD
Wind indicator: lighted
Segmented circle: no
Lights: ACTVT HIRL RY 05/23 - CTAF
Beacon: white-green (lighted land airport)
Operates sunset to sunrise.

Airport Communications

CTAF: 122.9

Nearby radio navigation aids

VOR radial/distance  VOR name  Freq  Var
MWHr097/32.9MOSES LAKE VOR/DME115.0018E

Airport Services

Parking: tiedowns
Airframe service: NONE
Powerplant service: NONE
Bottled oxygen: NONE
Bulk oxygen: NONE

Runway Information

Runway 5/23

Dimensions: 3197 x 50 ft. / 974 x 15 m
EAST END OF RY HAS 800 X 50' DIRT GRADED SAFETY AREA.
Surface: asphalt, in good condition
Runway edge lights: high intensity
Runway edge markings: MARKINGS FADED.
RUNWAY 5  RUNWAY 23
Latitude: 46-58.494083N46-58.726933N
Longitude: 118-35.578383W118-34.889333W
Elevation: 1478.0 ft.
Gradient: 0.4%0.4%
Traffic pattern: leftleft
Runway heading: 045 magnetic, 064 true225 magnetic, 244 true
Markings: basic, in poor condition, in poor condition
Obstructions: none
RY 05 +3' FENCE 100' FM THLD.
17 ft. hill, 902 ft. from runway, 41:1 slope to clear

Airport Ownership and Management from official FAA records

Ownership: Publicly-owned
Owner: TOWN OF LIND
BOX F
LIND, WA 99341
Phone 509-677-3241
Manager: JAMIE SCHMUNK
PO BOX 538
LIND, WA 99341
Phone 509-677-3241

Airport Operational Statistics

Aircraft based on the field: 3
Single engine airplanes: 3
    
Aircraft operations: avg 22/day *
87% local general aviation
12% transient general aviation
<1% military
* for 12-month period ending 31 December 2016

Instrument Procedures

There are no published instrument procedures at 0S0.

Some nearby airports with instrument procedures:

KMWH - Grant County International Airport (33 nm NW)
KEPH - Ephrata Municipal Airport (43 nm NW)
2S8 - Wilbur Airport (47 nm N)
KPSC - Tri-Cities Airport (48 nm SW)
KRLD - Richland Airport (50 nm SW)
 
Loc | Ops | Rwys | IFR | FBO | Links
Com | Nav | Svcs | Stats | Notes


 
Area around 0S0 (Lind Airport)
 
Road maps at: MapQuest Bing Google
 
Aerial photo
WARNING: Photo may not be current or correct
Aerial photo of 0S0 (Lind Airport)
Photo by David Wyatt
Photo taken 22-Jun-2007
looking northeast down runway 5

Do you have a better or more recent aerial photo of Lind Airport that you would like to share? If so, please send us your photo.

 
Sectional chart

 
Airport distance calculator
Flying to Lind Airport? Find the distance to fly.

From to 0S0

Sunrise and sunset
Times for 19-Jan-2018
 Local
(UTC-8)
 Zulu
(UTC)
Morning civil twilight07:0015:00
Sunrise07:3415:34
Sunset16:3700:37
Evening civil twilight17:1001:10

Current date and time
Zulu (UTC)  19-Jan-2018 13:40:19
Local (UTC-8)  19-Jan-2018 05:40:19
 
METAR
KMWH 
33nm NW 
191301Z AUTO 00000KT 1/4SM R32R/1400V1800FT FZFG VV001 M02/M02 A2983 RMK AO2 T10171022
KEPH 
43nm NW 
191253Z AUTO 00000KT 1/4SM FG VV001 01/M01 A2982 RMK AO2 SLP107 T00061011
KPSC 
48nm SW 
191253Z AUTO 00000KT 10SM CLR 04/00 A2988 RMK AO2 SLP121 T00390000
KRLD 
50nm SW 
191315Z AUTO 22006KT 10SM CLR 04/01 A2987 RMK AO2 T00400009
TAF
KMWH 
33nm NW 
191130Z 1912/2012 35006KT P6SM FEW003 SCT150 TEMPO 1912/1916 BKN003 BKN150 FM191800 20005KT P6SM SCT060 SCT120 FM192000 21009KT P6SM SCT080 FM200200 18006KT P6SM VCSH OVC050
NOTAMs
Click for the latest NOTAMs
NOTAMs are issued by the DoD/FAA and will open in a separate window not controlled by AirNav.

 

 
 

Would you like to see your business listed on this page?

 If your business provides an interesting product or service to pilots, flight crews, aircraft, or users of the Lind Airport, you should consider listing it here.  To start the listing process, click on the button below
 
Add a business
 

Other Pages about Lind Airport

Update a link
 
Copyright © AirNav, LLC. All rights reserved. Privacy Policy  Contact